Location: Unspecified
(0.0000°N, 0.0000°E)
Time: 07:14:31
(UTC+02:00)

Amateur Radio Satellites - All Passes

Search period start: 30 April 2016 06:44
Search period end: 01 May 2016 06:44
Location: Unspecified, 0.0000°N, 0.0000°E

Satellite Date Start Highest point End Downlink Frequencies (MHz)
Time Altitude Azimuth
Cosmos 2491 30 Apr 06:48:17 06:53:11 16° 93° (E) 06:58:03 435.465 / 435.565
NOAA 18 30 Apr 06:53:29 06:57:24 20° 104° (ESE) 07:01:19 137.9125
JUGNU 30 Apr 06:59:43 07:04:19 23° 197° (SSW) 07:08:54 437.505
CUTE-I 30 Apr 07:09:31 07:13:27 21° 103° (ESE) 07:17:24 437.470
CUBESAT XI-V 30 Apr 07:21:14 07:25:48 66° 258° (WSW) 07:30:20 437.345
SO-50 30 Apr 07:33:51 07:38:30 55° 112° (ESE) 07:43:15 436.795
SRMSAT 30 Apr 07:50:54 07:56:30 43° 200° (SSW) 08:02:06 437.500
Cubesat XI-IV 30 Apr 07:51:24 07:56:41 69° 103° (ESE) 08:02:00 437.490
LilacSat-2 30 Apr 07:57:31 08:01:17 85° 99° (E) 08:05:04 437.200
ISS 30 Apr 07:59:03 08:01:11 16° 306° (NW) 08:03:19 145.825
BEESAT 2 30 Apr 07:59:25 08:03:00 34° 248° (WSW) 08:06:35 435.950
BEESAT 3 30 Apr 07:59:40 08:02:14 17° 248° (WSW) 08:04:49 437.485
NOAA 15 30 Apr 08:01:55 08:07:02 51° 283° (WNW) 08:12:11 137.62
GOMX 1 30 Apr 08:09:46 08:14:40 44° 101° (E) 08:19:18 467.674
BRITE-PL 30 Apr 08:18:21 08:23:50 59° 282° (WNW) 08:29:04 437.365/2234.400
Cosmos 2504 30 Apr 08:20:28 08:24:01 13° 89° (E) 08:27:38 435.465 / 435.565
DOVE 4 30 Apr 08:23:29 08:27:22 25° 101° (E) 08:31:04 437.250
RS-15 30 Apr 08:24:54 08:31:54 17° 66° (ENE) 08:38:45 29.354- 29.394
YUBILEINY 30 Apr 08:26:14 08:34:57 85° 268° (W) 08:43:45 435.215
PHONESAT 2.4 30 Apr 08:30:43 08:33:29 28° 137° (SE) 08:36:14 2401.200-2431.200
NOAA 18 30 Apr 08:33:14 08:37:46 27° 283° (WNW) 08:42:20 137.9125
Cosmos 2491 30 Apr 08:41:01 08:49:37 60° 273° (W) 08:58:13 435.465 / 435.565
CUTE-I 30 Apr 08:48:57 08:53:13 25° 283° (WNW) 08:57:32 437.470
CANX-2 30 Apr 08:50:02 08:51:51 13° 102° (ESE) 08:53:40 2200.000
HO-68 30 Apr 08:51:48 08:57:15 24° 105° (ESE) 09:02:42 435.675
JUGNU 30 Apr 08:52:04 08:54:06 12° 188° (S) 08:56:08 437.505
STRAND 1 30 Apr 08:55:05 09:00:14 89° 79° (E) 09:05:20 437.568
M-CUBED/EXP-1 PRIME 30 Apr 08:59:23 09:02:30 29° 286° (WNW) 09:05:28 437.505
AIST 2 30 Apr 09:03:28 09:07:26 48° 68° (ENE) 09:11:24 435.215
CUTE 1.7 + AOD 2 30 Apr 09:21:30 09:25:15 31° 102° (ESE) 09:29:01 437.475
AUBIESAT-1 30 Apr 09:21:38 09:24:03 18° 287° (WNW) 09:26:23 437.475
CINEMA 3 30 Apr 09:30:30 09:34:38 43° 101° (E) 09:38:39 145.822/145.860
SRMSAT 30 Apr 09:42:04 09:46:03 18° 195° (SSW) 09:50:03 437.500
GOMX 1 30 Apr 09:51:36 09:52:20 10° 284° (WNW) 09:53:04 467.674
SEEDS 30 Apr 09:54:19 09:58:28 66° 101° (E) 10:02:40 437.485
DOVE 4 30 Apr 10:01:50 10:04:46 16° 283° (WNW) 10:07:35 437.250
COMPASS 1 30 Apr 10:03:49 10:07:55 58° 102° (ESE) 10:12:03 437.405
PHONESAT 2.4 30 Apr 10:08:49 10:10:14 12° 318° (NW) 10:11:39 2401.200-2431.200
Cosmos 2504 30 Apr 10:08:49 10:16:48 67° 267° (W) 10:25:24 435.465 / 435.565
PRISM 30 Apr 10:13:34 10:17:31 50° 258° (WSW) 10:21:27 437.425
CANX-2 30 Apr 10:23:59 10:27:26 25° 281° (W) 10:30:55 2200.000
Oscar 11 30 Apr 10:29:50 10:33:38 31° 102° (ESE) 10:37:28 145.826/435.025
RS-15 30 Apr 10:31:59 10:44:16 79° 250° (WSW) 10:56:09 29.354- 29.394
FUNcube-1 30 Apr 10:36:52 10:40:26 28° 102° (ESE) 10:44:01 145.935
AAUSAT CUBESAT 2 30 Apr 10:37:55 10:41:58 55° 282° (WNW) 10:46:04 437.432
HO-68 30 Apr 10:38:11 10:44:37 38° 284° (WNW) 10:51:07 435.675
UWE-3 30 Apr 10:38:47 10:42:52 58° 102° (ESE) 10:46:56 435.000/436.395/437.385
CUBEBUG 2 30 Apr 10:39:20 10:43:30 82° 280° (W) 10:47:38 437.445
DELFI C3 30 Apr 10:44:06 10:46:55 19° 102° (ESE) 10:49:45 145.870
HUMSAT D 30 Apr 11:13:35 11:16:17 17° 102° (ESE) 11:19:01 437.325/437.525
ZACube-1 30 Apr 11:16:48 11:20:53 61° 282° (WNW) 11:24:58 437.345
UNISAT 6 30 Apr 11:18:30 11:22:04 21° 78° (ENE) 11:25:36 437.425
SRMSAT 30 Apr 11:35:07 11:36:09 10° 185° (S) 11:37:12 437.500
TIGRISAT 30 Apr 11:36:26 11:40:42 35° 78° (ENE) 11:44:57 435.000
ANTELSAT 30 Apr 11:59:39 12:04:21 79° 78° (ENE) 12:09:03 437.575/2403.000
ESTCUBE 1 30 Apr 12:05:19 12:07:05 12° 102° (ESE) 12:08:52 437.505/2401.250
Oscar 11 30 Apr 12:09:24 12:09:31 10° 282° (WNW) 12:09:37 145.826/435.025
DELFI C3 30 Apr 12:19:16 12:21:32 15° 281° (WNW) 12:23:48 145.870
JUGNU 30 Apr 12:31:05 12:34:21 15° 168° (SSE) 12:37:35 437.505
QB50P2 30 Apr 12:33:43 12:37:25 29° 78° (ENE) 12:41:06 145.880/145.840
POLYITAN 1 30 Apr 12:35:47 12:39:31 29° 78° (ENE) 12:43:15 437.675
DUCHIFAT 1 30 Apr 12:37:55 12:41:31 27° 78° (ENE) 12:45:06 145.980
POPSAT HIP 1 30 Apr 12:39:11 12:43:00 32° 78° (ENE) 12:46:48 437.405
QB50P1 30 Apr 12:42:37 12:46:33 36° 78° (ENE) 12:50:28 145.935-145.965
CUBEBUG 1 30 Apr 12:43:33 12:47:15 27° 102° (ESE) 12:50:57 437.445
HUMSAT D 30 Apr 12:49:05 12:51:40 16° 281° (WNW) 12:54:16 437.325/437.525
50 SAT 30 Apr 12:50:12 12:53:39 40° 102° (ESE) 12:57:09 437.505
AO-85 30 Apr 12:54:13 12:59:01 42° 111° (ESE) 13:04:04 145.980
UNISAT 6 30 Apr 12:55:10 12:58:29 19° 258° (WSW) 13:01:48 437.425
AIST 1 30 Apr 12:58:25 13:01:13 17° 86° (E) 13:04:01
VELOX 1 30 Apr 13:01:48 13:06:07 51° 102° (ESE) 13:10:26 145.980
DX 1 30 Apr 13:09:37 13:13:54 58° 102° (ESE) 13:18:12 434.975-435.025
TIGRISAT 30 Apr 13:15:35 13:17:06 11° 258° (WSW) 13:18:36 435.000
NANOSAT C BR1 30 Apr 13:18:55 13:23:08 66° 258° (WSW) 13:27:21 145.865
UKube-1 30 Apr 13:21:52 13:26:10 68° 102° (ESE) 13:30:28 .
SRMSAT 30 Apr 13:25:19 13:26:33 11° 174° (S) 13:27:45 437.500
BUGSAT 1 30 Apr 13:32:24 13:36:31 69° 78° (ENE) 13:40:40 437.445
AISAT 30 Apr 13:33:25 13:37:43 51° 282° (WNW) 13:42:02 437.250
ESTCUBE 1 30 Apr 13:39:40 13:43:36 30° 282° (WNW) 13:47:35 437.505/2401.250
SPROUT 30 Apr 13:57:35 14:01:50 89° 308° (NW) 14:06:07 437.525
GONETS M04 30 Apr 14:10:05 14:18:46 79° 267° (W) 14:27:28
Oscar 19 30 Apr 14:11:15 14:14:33 17° 77° (ENE) 14:17:50 437.125/150
QB50P2 30 Apr 14:11:48 14:12:57 11° 258° (WSW) 14:14:06 145.880/145.840
POLYITAN 1 30 Apr 14:14:01 14:15:03 11° 258° (WSW) 14:16:05 437.675
DUCHIFAT 1 30 Apr 14:15:29 14:16:57 12° 258° (WSW) 14:18:24 145.980
JUGNU 30 Apr 14:18:37 14:23:51 33° 161° (SSE) 14:29:05 437.505
CUBEBUG 1 30 Apr 14:21:18 14:23:16 13° 282° (WNW) 14:25:14 437.445
Cosmos 2499 30 Apr 14:24:07 14:32:19 69° 88° (E) 14:41:03 435.465 / 435.565
AIST 1 30 Apr 14:35:30 14:38:32 18° 266° (W) 14:41:34
AO-85 30 Apr 14:37:01 14:39:23 13° 294° (WNW) 14:41:48 145.980
TISAT 1 30 Apr 14:43:08 14:47:20 86° 102° (ESE) 14:51:31 437.305
SWISSCUBE 30 Apr 14:56:11 14:58:59 16° 103° (ESE) 15:01:50 437.505
JAS-2 30 Apr 15:05:50 15:10:59 61° 258° (WSW) 15:16:32 435.910
SRMSAT 30 Apr 15:12:33 15:16:38 19° 165° (SSE) 15:20:45 437.500
Gurwin Techsat 1B 30 Apr 15:19:05 15:23:59 38° 77° (ENE) 15:28:51 435.225
ITAMSAT 1 30 Apr 15:24:08 15:26:27 13° 77° (ENE) 15:28:45 435.822/435.867
BEESAT 30 Apr 15:28:09 15:32:32 37° 103° (ESE) 15:36:55 436.000
Oscar 19 30 Apr 15:49:14 15:53:35 28° 257° (WSW) 15:57:57 437.125/150
PCSat 30 Apr 15:51:53 15:56:56 40° 110° (ESE) 16:01:59 145.827
O/OREOS (USA 219) 30 Apr 16:06:44 16:11:07 45° 284° (WNW) 16:15:30 437.305
JUGNU 30 Apr 16:07:04 16:12:56 90° 313° (NW) 16:18:51 437.505
ITUPSAT 1 30 Apr 16:20:57 16:25:28 43° 282° (WNW) 16:30:01 437.325
Cosmos 2499 30 Apr 16:21:37 16:25:15 13° 265° (W) 16:28:58 435.465 / 435.565
SWISSCUBE 30 Apr 16:32:33 16:36:31 26° 282° (WNW) 16:40:30 437.505
KKS-1 30 Apr 16:44:28 16:48:12 27° 102° (ESE) 16:51:55 437.445
SRMSAT 30 Apr 17:00:31 17:06:11 44° 159° (SSE) 17:11:53 437.500
ITAMSAT 1 30 Apr 17:00:51 17:05:38 38° 257° (WSW) 17:10:24 435.822/435.867
Gurwin Techsat 1B 30 Apr 17:01:05 17:03:37 14° 257° (WSW) 17:06:11 435.225
BEESAT 30 Apr 17:08:56 17:10:02 11° 283° (WNW) 17:11:09 436.000
STARS 30 Apr 17:09:15 17:12:50 25° 102° (ESE) 17:16:25 437.465
AO-7 30 Apr 17:16:07 17:24:25 72° 74° (ENE) 17:32:38 29.400- 29.500
DANDE 30 Apr 17:33:41 17:35:54 21° 274° (W) 17:37:58 436.750
PCSat 30 Apr 17:37:43 17:40:05 13° 290° (WNW) 17:42:26 145.827
JUGNU 30 Apr 17:56:49 18:02:03 33° 341° (NNW) 18:07:19 437.505
MOZHAYETS 4 30 Apr 18:02:17 18:06:38 44° 282° (WNW) 18:11:01
CUBESAT XI-V 30 Apr 18:06:02 18:06:56 10° 102° (ESE) 18:07:49 437.345
BEESAT 3 30 Apr 18:14:57 18:17:27 16° 112° (ESE) 18:19:56 437.485
KKS-1 30 Apr 18:22:27 18:24:30 13° 282° (WNW) 18:26:32 437.445
HORYU 2 30 Apr 18:23:40 18:28:10 86° 254° (WSW) 18:32:40 437.375
STARS 30 Apr 18:46:48 18:48:56 13° 282° (WNW) 18:51:04 437.465
SRMSAT 30 Apr 18:49:29 18:55:25 67° 339° (NNW) 19:01:24 437.500
Cubesat XI-IV 30 Apr 18:54:10 18:56:33 13° 77° (ENE) 18:58:55 437.490
NOAA 15 30 Apr 19:00:30 19:04:56 28° 77° (ENE) 19:09:20 137.62
YUBILEINY 30 Apr 19:05:47 19:12:15 23° 93° (E) 19:18:39 435.215
BRITE-PL 30 Apr 19:09:06 19:11:28 14° 77° (ENE) 19:13:54 437.365/2234.400
AO-7 30 Apr 19:13:08 19:16:42 13° 252° (WSW) 19:20:18 29.400- 29.500
Cosmos 2491 30 Apr 19:19:18 19:26:58 34° 87° (E) 19:34:35 435.465 / 435.565
ISS 30 Apr 19:32:08 19:34:55 26° 234° (SW) 19:37:43 145.825
NOAA 18 30 Apr 19:36:23 19:41:54 67° 77° (ENE) 19:47:23 137.9125
CUBESAT XI-V 30 Apr 19:39:42 19:44:01 37° 282° (WNW) 19:48:22 437.345
AUBIESAT-1 30 Apr 19:46:16 19:48:55 15° 73° (ENE) 19:51:36 437.475
SO-50 30 Apr 19:47:01 19:51:29 78° 248° (WSW) 19:55:51 436.795
CUTE-I 30 Apr 19:47:36 19:52:54 63° 78° (ENE) 19:58:09 437.470
JUGNU 30 Apr 19:48:16 19:51:35 15° 348° (NNW) 19:54:56 437.505
STRAND 1 30 Apr 19:51:25 19:53:50 13° 103° (ESE) 19:56:15 437.568
LilacSat-2 30 Apr 19:52:03 19:55:56 69° 80° (E) 19:59:47 437.200
BEESAT 3 30 Apr 19:52:22 19:54:53 16° 292° (WNW) 19:57:25 437.485
BEESAT 2 30 Apr 19:53:12 19:56:45 31° 292° (WNW) 20:00:17 435.950
PHONESAT 2.4 30 Apr 20:01:05 20:03:22 18° 42° (NE) 20:05:40 2401.200-2431.200
RS-15 30 Apr 20:11:33 20:13:17 10° 114° (ESE) 20:15:01 29.354- 29.394
Cubesat XI-IV 30 Apr 20:31:21 20:36:21 40° 257° (WSW) 20:41:18 437.490
Cosmos 2504 30 Apr 20:31:41 20:36:30 17° 95° (E) 20:41:06 435.465 / 435.565
GOMX 1 30 Apr 20:32:50 20:37:18 86° 78° (ENE) 20:42:06 467.674
SRMSAT 30 Apr 20:39:53 20:44:48 26° 342° (NNW) 20:49:44 437.500
NOAA 15 30 Apr 20:40:55 20:44:26 18° 257° (WSW) 20:47:55 137.62
DOVE 4 30 Apr 20:42:44 20:47:11 46° 78° (ENE) 20:51:52 437.250
HO-68 30 Apr 20:44:03 20:48:56 20° 75° (ENE) 20:53:46 435.675
BRITE-PL 30 Apr 20:46:20 20:49:41 22° 260° (W) 20:53:10 437.365/2234.400
CANX-2 30 Apr 20:55:55 20:58:30 16° 78° (ENE) 21:01:03 2200.000
M-CUBED/EXP-1 PRIME 30 Apr 20:57:43 21:01:54 41° 255° (WSW) 21:06:17 437.505
YUBILEINY 30 Apr 21:00:25 21:08:39 45° 273° (W) 21:16:50 435.215
AIST 2 30 Apr 21:01:46 21:05:51 61° 111° (ESE) 21:09:54 435.215
Cosmos 2491 30 Apr 21:16:07 21:23:23 30° 267° (W) 21:30:42 435.465 / 435.565
AUBIESAT-1 30 Apr 21:19:21 21:23:05 27° 255° (WSW) 21:26:56 437.475
CUTE 1.7 + AOD 2 30 Apr 21:27:48 21:31:47 39° 79° (ENE) 21:35:44 437.475
STRAND 1 30 Apr 21:28:05 21:32:43 36° 282° (WNW) 21:37:23 437.568
PHONESAT 2.4 30 Apr 21:37:44 21:40:07 20° 222° (SW) 21:42:30 2401.200-2431.200
CINEMA 3 30 Apr 21:45:44 21:50:32 77° 79° (ENE) 21:55:28 145.822/145.860
SEEDS 30 Apr 21:59:46 22:04:00 81° 78° (ENE) 22:08:10 437.485
COMPASS 1 30 Apr 22:08:12 22:12:21 69° 79° (ENE) 22:16:28 437.405
RS-15 30 Apr 22:14:29 22:25:24 88° 110° (ESE) 22:36:43 29.354- 29.394
PRISM 30 Apr 22:16:21 22:20:21 46° 282° (WNW) 22:24:22 437.425
Cosmos 2504 30 Apr 22:22:11 22:29:38 47° 272° (W) 22:36:37 435.465 / 435.565
HO-68 30 Apr 22:29:32 22:36:18 45° 255° (WSW) 22:43:02 435.675
CANX-2 30 Apr 22:30:57 22:34:05 20° 258° (WSW) 22:37:12 2200.000
SRMSAT 30 Apr 22:32:03 22:34:42 13° 350° (N) 22:37:20 437.500
Oscar 11 30 Apr 22:38:21 22:42:28 42° 79° (ENE) 22:46:32 145.826/435.025
AAUSAT CUBESAT 2 30 Apr 22:41:50 22:45:50 47° 258° (WSW) 22:49:48 437.432
DELFI C3 30 Apr 22:43:23 22:46:06 18° 79° (ENE) 22:48:47 145.870
FUNcube-1 30 Apr 22:45:44 22:50:06 43° 78° (ENE) 22:54:24 145.935
UWE-3 30 Apr 22:49:23 22:54:04 89° 78° (ENE) 22:58:45 435.000/436.395/437.385
CUBEBUG 2 30 Apr 22:51:13 22:55:51 56° 258° (WSW) 23:00:30 437.445
HUMSAT D 30 Apr 23:18:00 23:21:19 22° 79° (ENE) 23:24:35 437.325/437.525
ZACube-1 30 Apr 23:26:26 23:30:50 46° 258° (WSW) 23:35:13 437.345
JUGNU 30 Apr 23:29:40 23:31:53 12° 9° (N) 23:34:06 437.505
UNISAT 6 30 Apr 23:31:37 23:35:17 28° 102° (ESE) 23:38:58 437.425
TIGRISAT 30 Apr 23:49:38 23:53:44 49° 102° (ESE) 23:57:51 435.000
ANTELSAT 01 May 00:13:22 00:17:34 66° 281° (WNW) 00:21:48 437.575/2403.000
ESTCUBE 1 01 May 00:18:10 00:21:16 19° 78° (ENE) 00:24:22 437.505/2401.250
DELFI C3 01 May 00:18:26 00:20:42 15° 258° (WSW) 00:22:58 145.870
RS-15 01 May 00:34:04 00:37:47 12° 295° (WNW) 00:41:34 29.354- 29.394
QB50P2 01 May 00:39:57 00:43:47 35° 102° (ESE) 00:47:37 145.880/145.840
50 SAT 01 May 00:41:30 00:44:45 29° 79° (ENE) 00:47:58 437.505
POLYITAN 1 01 May 00:42:04 00:45:54 35° 102° (ESE) 00:49:45 437.675
DUCHIFAT 1 01 May 00:43:22 00:47:05 32° 102° (ESE) 00:50:49 145.980
POPSAT HIP 1 01 May 00:45:20 00:49:14 38° 102° (ESE) 00:53:08 437.405
QB50P1 01 May 00:48:43 00:52:43 44° 102° (ESE) 00:56:43 145.935-145.965
GONETS M04 01 May 00:49:08 00:56:00 25° 93° (E) 01:02:49
CUBEBUG 1 01 May 00:53:22 00:57:21 36° 78° (ENE) 01:01:20 437.445
HUMSAT D 01 May 00:54:11 00:56:39 15° 258° (WSW) 00:59:07 437.325/437.525
AIST 1 01 May 01:04:29 01:07:50 22° 94° (E) 01:11:10
AO-85 01 May 01:08:32 01:12:37 72° 68° (ENE) 01:16:27 145.980
UNISAT 6 01 May 01:10:55 01:11:45 10° 282° (WNW) 01:12:36 437.425
VELOX 1 01 May 01:13:24 01:17:48 76° 78° (ENE) 01:22:11 145.980
JUGNU 01 May 01:17:00 01:21:41 23° 17° (NNE) 01:26:21 437.505
DX 1 01 May 01:19:14 01:23:34 81° 80° (E) 01:27:54 434.975-435.025
NANOSAT C BR1 01 May 01:24:54 01:28:58 53° 282° (WNW) 01:33:03 145.865
UKube-1 01 May 01:30:27 01:34:47 90° 280° (W) 01:39:05 .
BUGSAT 1 01 May 01:35:41 01:39:48 77° 102° (ESE) 01:43:52 437.445
AISAT 01 May 01:45:29 01:49:28 34° 258° (WSW) 01:53:29 437.250
ESTCUBE 1 01 May 01:54:38 01:57:49 19° 258° (WSW) 02:00:59 437.505/2401.250
SPROUT 01 May 02:05:05 02:09:22 69° 258° (WSW) 02:13:38 437.525
SRMSAT 01 May 02:12:17 02:15:20 14° 11° (N) 02:18:23 437.500
Cosmos 2499 01 May 02:35:39 02:43:17 88° 93° (E) 02:50:25 435.465 / 435.565
JAS-2 01 May 02:37:00 02:44:48 74° 102° (ESE) 02:52:04 435.910
O/OREOS (USA 219) 01 May 02:40:59 02:42:58 13° 75° (ENE) 02:44:56 437.305
Oscar 19 01 May 02:43:19 02:48:13 44° 103° (ESE) 02:53:07 437.125/150
AIST 1 01 May 02:43:22 02:45:08 12° 274° (W) 02:46:55
GONETS M04 01 May 02:44:18 02:52:24 41° 273° (W) 03:00:33
TISAT 1 01 May 02:48:27 02:52:41 79° 258° (WSW) 02:56:55 437.305
JUGNU 01 May 03:05:04 03:10:58 58° 21° (NNE) 03:16:50 437.505
ITUPSAT 1 01 May 03:06:59 03:10:18 19° 78° (ENE) 03:13:36 437.325
SWISSCUBE 01 May 03:16:54 03:21:04 30° 78° (ENE) 03:25:11 437.505
BEESAT 01 May 03:49:46 03:54:32 74° 78° (ENE) 03:59:17 436.000
AO-7 01 May 03:54:54 03:58:23 13° 108° (ESE) 04:01:50 29.400- 29.500
ITAMSAT 1 01 May 03:56:37 04:01:18 35° 103° (ESE) 04:06:00 435.822/435.867
Gurwin Techsat 1B 01 May 03:57:06 04:02:23 75° 282° (WNW) 04:07:42 435.225
SRMSAT 01 May 03:59:59 04:05:07 30° 18° (NNE) 04:10:15 437.500
CUSAT 1 01 May 04:09:12 04:17:14 73° 86° (E) 04:24:56 437.405
O/OREOS (USA 219) 01 May 04:18:23 04:22:05 26° 256° (WSW) 04:25:47 437.305
Oscar 19 01 May 04:26:12 04:27:14 11° 283° (WNW) 04:28:17 437.125/150
JAS-2 01 May 04:26:12 04:29:11 13° 285° (WNW) 04:32:09 435.910
PCSat 01 May 04:27:45 04:33:05 64° 251° (WSW) 04:38:25 145.827
DANDE 01 May 04:29:10 04:36:51 53° 86° (E) 04:44:58 436.750
MOZHAYETS 4 01 May 04:44:05 04:46:35 15° 78° (ENE) 04:49:04
ITUPSAT 1 01 May 04:44:11 04:47:52 22° 257° (WSW) 04:51:33 437.325
JUGNU 01 May 04:54:14 05:00:02 51° 201° (SSW) 05:05:49 437.505
SWISSCUBE 01 May 04:56:12 04:58:34 14° 257° (WSW) 05:00:57 437.505
KKS-1 01 May 04:56:31 05:00:42 40° 78° (ENE) 05:04:52 437.445
STARS 01 May 05:19:43 05:23:46 36° 78° (ENE) 05:27:48 437.465
ITAMSAT 1 01 May 05:37:49 05:40:30 14° 283° (WNW) 05:43:11 435.822/435.867
AO-7 01 May 05:42:22 05:50:40 74° 286° (WNW) 05:59:01 29.400- 29.500
SRMSAT 01 May 05:48:29 05:54:26 79° 21° (NNE) 06:00:23 437.500
CUSAT 1 01 May 05:55:15 05:58:56 14° 266° (W) 06:02:34 437.405
BEESAT 3 01 May 06:07:32 06:10:04 17° 68° (ENE) 06:12:37 437.485
DANDE 01 May 06:13:42 06:19:30 22° 264° (W) 06:25:31 436.750
MOZHAYETS 4 01 May 06:19:39 06:23:29 26° 258° (WSW) 06:27:18
CUBESAT XI-V 01 May 06:22:09 06:25:17 18° 78° (ENE) 06:28:24 437.345
